St. Joseph, KS

7:25 AM CST on November 14, 2019 (GMT -0600)
Rosecrans Memorial

Weather History for KSTJ - September, 2019

Change the Weather History Date:

Saturday, September 14, 2019

  Actual Average Record
Temperature  
Mean Temperature 73 °F 67 °F  
Max Temperature 87 °F 80 °F 98 °F (1939)
Min Temperature 59 °F 55 °F 35 °F (1974)
Degree Days  
Heating Degree Days 0 2  
Month to date heating degree days 0 14  
Since 1 July heating degree days 0 19  
Cooling Degree Days 8 4  
Month to date cooling degree days 148 77  
Year to date cooling degree days 1292 1154  
Growing Degree Days 24 (Base 50)    
Moisture  
Dew Point 64 °F    
Average Humidity 74    
Maximum Humidity 90    
Minimum Humidity 57    
Precipitation  
Precipitation 0.00 in 0.11 in 2.14 in (1942)
Month to date precipitation 1.47 1.86  
Year to date precipitation 30.74 28.16  
Sea Level Pressure  
Sea Level Pressure 30.09 in    
Wind  
Wind Speed 8 mph (South)    
Max Wind Speed 17 mph    
Max Gust Speed 27 mph    
Visibility 10 miles    
Events      
T = Trace of Precipitation, MM = Missing Value Source: NWS Daily Summary

Daily Weather History Graph

Daily Weather History Graph

Search for Another Location

Airport or City:

Astronomy

Sep. 14, 2019 Rise Set
Actual Time 6:59 AM CDT 7:30 PM CDT
Civil Twilight 6:32 AM CDT 7:57 PM CDT
Nautical Twilight 6:00 AM CDT 8:29 PM CDT
Astronomical Twilight 5:27 AM CDT 9:01 PM CDT
Moon 8:11 PM CDT 7:14 AM CDT
Length of Visible Light 13h 24m
Length of Day
12h 30m
Full, 100% of the Moon is Illuminated
Sep 14
Full
Sep 21
Last Quarter
Sep 28
New
Oct 5
First Quarter
Oct 13
Full

Hourly Weather History & Observations

Time (CDT) Temp. Heat Index Dew Point Humidity Pressure Visibility Wind Dir Wind Speed Gust Speed Precip Events Conditions
12:53 AM 63.0 °F - 57.9 °F 84% 30.17 in 10.0 mi South 3.5 mph - N/A   Clear
1:53 AM 61.0 °F - 57.9 °F 90% 30.17 in 10.0 mi SSE 3.5 mph - N/A   Clear
2:53 AM 60.1 °F - 57.0 °F 90% 30.16 in 10.0 mi Calm Calm - N/A   Clear
3:53 AM 61.0 °F - 57.9 °F 90% 30.16 in 10.0 mi SE 4.6 mph - N/A   Mostly Cloudy
4:53 AM 60.1 °F - 57.9 °F 93% 30.16 in 10.0 mi Calm Calm - N/A   Clear
5:53 AM 62.1 °F - 59.0 °F 90% 30.16 in 10.0 mi SSE 3.5 mph - N/A   Mostly Cloudy
6:53 AM 60.1 °F - 57.9 °F 93% 30.16 in 10.0 mi SSE 3.5 mph - N/A   Clear
7:53 AM 63.0 °F - 59.0 °F 87% 30.17 in 10.0 mi South 4.6 mph - N/A   Clear
8:53 AM 68.0 °F - 61.0 °F 78% 30.16 in 10.0 mi South 6.9 mph - N/A   Clear
9:53 AM 73.9 °F - 61.0 °F 64% 30.15 in 10.0 mi South 10.4 mph - N/A   Clear
10:53 AM 75.9 °F - 62.1 °F 62% 30.13 in 10.0 mi South 9.2 mph - N/A   Clear
11:53 AM 80.1 °F 81.9 °F 64.9 °F 60% 30.12 in 10.0 mi South 11.5 mph - N/A   Clear
12:53 PM 82.9 °F 85.4 °F 66.9 °F 58% 30.09 in 10.0 mi South 12.7 mph - N/A   Clear
1:53 PM 84.9 °F 88.2 °F 68.0 °F 57% 30.07 in 10.0 mi SSW 12.7 mph 19.6 mph N/A   Clear
2:53 PM 84.9 °F 88.8 °F 69.1 °F 59% 30.04 in 10.0 mi South 15.0 mph 23.0 mph N/A   Scattered Clouds
3:53 PM 86.0 °F 90.7 °F 70.0 °F 59% 30.03 in 10.0 mi South 11.5 mph - N/A   Partly Cloudy
4:53 PM 87.1 °F 92.8 °F 71.1 °F 59% 30.01 in 10.0 mi South 10.4 mph 21.9 mph N/A   Scattered Clouds
5:53 PM 84.9 °F 89.4 °F 70.0 °F 61% 30.00 in 10.0 mi South 6.9 mph - N/A   Clear
6:53 PM 82.9 °F 87.5 °F 71.1 °F 67% 29.99 in 10.0 mi South 9.2 mph - N/A   Clear
7:53 PM 79.0 °F - 70.0 °F 74% 29.99 in 10.0 mi South 8.1 mph - N/A   Clear
8:53 PM 78.1 °F - 70.0 °F 76% 30.00 in 10.0 mi South 6.9 mph - N/A   Clear
9:53 PM 75.9 °F - 70.0 °F 82% 30.01 in 10.0 mi South 8.1 mph - N/A   Clear
10:53 PM 77.0 °F - 69.1 °F 76% 30.00 in 10.0 mi South 10.4 mph - N/A   Clear
11:53 PM 78.1 °F - 69.1 °F 74% 30.00 in 10.0 mi South 11.5 mph - N/A   Clear